Francistown, Botswana

12:36 PM CAT on June 26, 2017 (GMT +0200)
Francistown

Weather History for FBFT - August, 2014

Change the Weather History Date:

Friday, August 29, 2014

  Actual Average Record
Temperature  
Mean Temperature 64 °F -  
Max Temperature 76 °F 83 °F 93 °F (2008)
Min Temperature 51 °F 54 °F 42 °F (1999)
Degree Days  
Heating Degree Days 2    
Growing Degree Days 14 (Base 50)    
Moisture  
Dew Point 18 °F    
Average Humidity 18    
Maximum Humidity 49    
Minimum Humidity 5    
Precipitation  
Precipitation 0.00 in - - ()
Sea Level Pressure  
Sea Level Pressure 30.12 in    
Wind  
Wind Speed 7 mph ()    
Max Wind Speed 15 mph    
Max Gust Speed -    
Visibility 6.0 miles    
Events      
Averages and records for this station are not official NWS values.
T = Trace of Precipitation, MM = Missing Value Source: Averaged Metar Reports

Daily Weather History Graph

Daily Weather History Graph

Search for Another Location

Airport or City:

Trip Planner

Search our weather history database for the weather conditions in past years. The results will help you decide how hot, cold, wet, or windy it might be!

Date:

Astronomy

Aug. 29, 2014 Rise Set
Actual Time 6:22 AM CAT 6:00 PM CAT
Civil Twilight 5:59 AM CAT 6:22 PM CAT
Nautical Twilight 5:33 AM CAT 6:48 PM CAT
Astronomical Twilight 5:08 AM CAT 7:14 PM CAT
Moon 8:30 AM CAT (8/29) 9:17 PM CAT (8/29)
Length of Visible Light 12h 22m
Length of Day
11h 37m
Waxing Crescent, 13% of the Moon is Illuminated
Aug 29
Waxing Crescent
Sep 2
First Quarter
Sep 9
Full
Sep 16
Last Quarter
Sep 24
New

Hourly Weather History & Observations

Time (CAT) Temp. Dew Point Humidity Pressure Visibility Wind Dir Wind Speed Gust Speed Precip Events Conditions
12:00 AM 66.2 °F 19.4 °F 17% 29.98 in - SW 6.9 mph - N/A   Clear
1:00 AM 62.6 °F 17.6 °F 18% 30.01 in - Variable 2.3 mph - N/A   Clear
2:00 AM 59 °F 17 °F 10%  in 6 mi WSW 4.6 mph - -  
2:00 AM 59.0 °F 15.8 °F 19% 30.01 in - WSW 4.6 mph - N/A   Clear
3:00 AM 59.0 °F 14.0 °F 17% 30.01 in - SW 5.8 mph - N/A   Clear
4:00 AM 55.4 °F 17.6 °F 23% 30.04 in - SW 6.9 mph - N/A   Clear
5:00 AM 53 °F 20 °F 15%  in 6 mi SSW 6.9 mph - -  
5:00 AM 53.6 °F 19.4 °F 26% 30.06 in - SSW 6.9 mph - N/A   Clear
6:00 AM 51.8 °F 21.2 °F 30% 30.06 in - South 4.6 mph - N/A   Clear
7:00 AM 51.8 °F 23.0 °F 33% 30.09 in - SSW 4.6 mph - N/A   Clear
8:00 AM 57 °F 24 °F 16%  in 6 mi South 11.5 mph - -  
8:00 AM 57.2 °F 23.0 °F 27% 30.15 in - South 11.5 mph - N/A   Clear
9:00 AM 60.8 °F 23.0 °F 23% 30.18 in - South 15.0 mph - N/A   Clear
10:00 AM 64.4 °F 23.0 °F 21% 30.15 in - SSW 15.0 mph - N/A   Clear
11:00 AM 65 °F 19 °F 8%  in 6 mi SW 9.2 mph - -  
11:00 AM 64.4 °F 44.6 °F 49% 30.18 in - SW 9.2 mph - N/A   Clear
12:00 PM 68.0 °F 21.2 °F 17% 30.15 in - SSW 10.4 mph - N/A   Clear
1:00 PM 71.6 °F 19.4 °F 14% 30.12 in - SSW 9.2 mph - N/A   Clear
2:00 PM 74 °F 16 °F 5%  in 6 mi South 15.0 mph - -  
2:00 PM 73.4 °F 15.8 °F 11% 30.12 in - South 15.0 mph - N/A   Clear
3:00 PM 75.2 °F 12.2 °F 9% 30.09 in - SSE 10.4 mph - N/A   Clear
4:00 PM 75.2 °F 12.2 °F 9% 30.12 in - South 12.7 mph - N/A   Clear
5:00 PM 71.6 °F 10.4 °F 9% 30.12 in - South 4.6 mph - N/A   Clear
6:00 PM 68.0 °F 14.0 °F 12% 30.15 in - South 11.5 mph - N/A   Clear
7:00 PM 62.6 °F 15.8 °F 16% 30.15 in - South 5.8 mph - N/A   Clear
8:00 PM 58 °F 17 °F 10%  in 6 mi South 6.9 mph - -  
8:00 PM 59.0 °F 17.6 °F 20% 30.18 in - South 6.9 mph - N/A   Clear
9:00 PM 55.4 °F 15.8 °F 21% 30.24 in - South 5.8 mph - N/A   Clear
10:00 PM 53.6 °F 12.2 °F 19% 30.24 in - South 8.1 mph - N/A   Clear
11:00 PM 53.6 °F 10.4 °F 18% 30.24 in - South 8.1 mph - N/A   Clear